Wind_Speed
19 22 23 24 22 19 17 21 18 17 16 15 14 14 13 11 10 10 10 10 10 10 10 10 10 9 8 8 9 9 9 9 8 7 7 6 5 5 4 4 3 3 3 3 3 3 3 3 3
18 22 24 25 24 19 20 23 21 19 17 15 14 13 12 12 10 11 10 10 11 11 11 11 11 10 9 9 9 10 10 10 9 8 7 7 6 5 5 4 4 4 4 4 4 4 3 3 3
20 23 26 27 28 24 21 25 24 20 18 17 14 13 12 11 11 11 10 10 10 11 11 11 11 10 10 10 10 10 10 10 9 8 7 7 6 6 5 5 5 5 5 4 5 4 4 4 4
23 25 27 28 30 30 29 28 26 23 20 18 15 12 10 10 10 10 10 9 9 10 10 10 10 10 10 10 11 11 11 10 10 9 8 7 7 6 6 5 5 5 5 5 5 5 5 6 6
27 26 27 27 30 31 33 31 27 25 21 17 14 12 11 9 9 8 9 9 9 9 10 10 10 10 10 11 11 11 11 11 10 9 8 8 7 7 6 6 5 5 4 4 5 6 6 7 7
31 28 26 26 28 32 34 33 30 27 23 19 16 13 11 9 8 7 7 8 8 9 9 10 10 10 11 11 11 11 11 10 10 9 9 8 7 7 6 5 5 4 4 4 5 6 7 8 8
34 31 27 26 29 32 35 35 33 30 27 22 18 14 12 11 9 8 6 7 7 9 9 10 10 10 11 11 11 11 11 10 10 9 9 8 7 7 6 5 4 4 3 4 5 6 8 9 9
37 34 29 28 30 33 36 37 35 33 30 26 20 17 14 11 9 8 6 6 7 8 9 9 10 11 11 11 12 12 11 10 10 9 9 8 7 6 5 4 4 4 4 5 6 8 9 10 11
40 38 32 29 31 33 37 38 37 35 32 27 23 19 16 13 10 8 6 5 7 8 9 9 10 11 11 12 12 12 11 10 10 9 8 8 7 6 5 5 5 5 6 7 8 9 10 11 12
42 40 34 34 33 35 38 38 39 37 34 30 26 23 19 15 12 9 7 6 7 8 9 10 10 10 11 12 11 11 11 10 10 9 9 8 7 6 6 6 6 6 7 8 9 10 10 11 11
42 41 39 36 33 34 37 39 40 39 36 32 28 24 21 17 14 12 10 8 8 9 10 10 10 10 11 11 11 10 10 10 10 9 9 9 8 8 8 8 8 8 9 10 10 11 11 12 12
42 42 41 38 36 35 37 38 39 39 37 35 32 27 23 19 16 14 11 10 9 10 10 10 10 10 10 10 10 10 10 10 10 10 10 10 10 11 10 10 10 10 11 12 12 12 13 14 14
40 41 41 40 38 36 35 36 37 37 38 38 34 30 26 21 17 15 13 11 11 11 11 11 10 10 10 10 10 10 10 10 11 12 12 12 13 13 13 13 13 14 14 15 15 14 14 15 15
38 40 41 40 38 35 33 34 35 36 39 39 36 31 28 24 20 17 14 13 12 13 13 12 11 10 10 10 10 10 11 12 13 13 14 14 15 15 16 16 17 17 18 18 18 17 17 18 18
35 37 38 38 36 35 33 32 32 35 38 38 36 33 29 26 22 19 17 15 14 15 15 14 13 12 11 11 12 12 13 14 15 15 16 17 17 18 19 20 20 21 21 21 21 20 20 21 21
31 33 34 36 36 35 32 30 32 34 36 37 36 34 30 27 24 22 20 19 17 17 17 17 15 15 14 13 13 13 14 15 16 17 18 19 20 21 22 23 24 25 25 25 25 24 23 24 23
29 30 32 34 34 33 31 29 30 31 33 36 36 35 32 29 27 25 23 21 20 19 19 19 19 18 16 16 16 16 17 18 19 20 21 22 23 24 25 26 28 28 27 27 27 27 27 26 25
27 28 30 31 32 32 31 31 29 29 31 34 35 36 34 31 30 27 26 24 22 22 22 22 22 21 20 19 18 19 20 21 22 23 24 25 26 28 28 29 29 30 28 28 28 28 28 28 27
27 28 29 31 30 30 30 30 29 28 30 33 35 35 34 33 30 28 28 27 25 25 23 24 25 25 24 23 23 23 23 24 25 25 26 28 29 30 32 31 31 31 30 30 30 28 28 28 27
25 26 26 28 29 29 29 28 28 28 29 31 33 35 34 33 31 29 29 28 27 26 26 26 27 27 27 28 28 27 27 27 28 30 31 32 32 33 33 31 31 30 29 27 26 27 28 27 28
24 25 26 27 28 27 27 26 26 27 27 29 31 33 33 33 32 31 31 30 29 28 28 27 28 29 30 30 32 31 30 31 32 33 35 37 37 34 32 29 29 28 28 27 27 27 28 28 29
21 24 26 27 25 23 24 20 25 26 27 27 28 30 32 33 33 33 33 32 31 30 29 28 28 29 30 31 32 33 33 34 34 35 35 37 37 33 30 29 28 29 29 29 29 28 28 30 30
22 24 25 26 26 23 23 20 23 25 26 26 26 27 29 32 34 35 35 35 34 32 31 30 30 31 32 31 31 32 32 33 34 35 35 34 33 32 32 30 28 29 30 30 30 30 30 31 31
22 24 25 25 23 22 23 21 23 25 25 24 24 25 26 28 31 33 36 36 34 33 32 31 32 31 32 32 33 33 32 33 33 35 35 34 34 34 33 31 30 29 29 30 30 32 32 32 32
21 22 21 20 21 21 24 23 23 23 23 23 23 23 23 25 27 29 32 34 35 35 34 33 32 32 32 33 33 34 34 35 37 38 39 38 38 37 35 32 32 30 30 31 33 34 34 35 35
20 22 18 15 17 20 25 25 25 22 21 22 22 22 22 24 26 27 29 32 34 34 34 34 34 33 33 36 36 36 38 39 40 41 42 42 42 40 37 36 35 33 33 35 35 37 38 38 40
19 21 20 19 18 18 23 26 25 24 23 22 23 23 23 25 26 28 29 30 32 33 34 34 35 35 36 37 38 39 40 41 43 44 45 46 45 43 42 42 42 38 38 39 39 40 41 42 43
19 20 21 18 15 16 21 24 24 24 24 23 23 24 25 26 28 29 30 31 33 34 34 35 36 37 38 39 41 42 43 45 45 46 47 48 47 47 47 46 45 43 42 43 44 44 46 47 47
17 19 20 18 17 14 17 23 23 24 25 25 25 26 27 28 30 31 32 33 34 35 36 37 39 40 41 42 43 44 45 45 47 47 48 47 47 48 48 47 47 46 47 47 47 47 48 50 51
16 17 18 17 19 19 15 21 22 23 24 25 26 27 29 30 31 32 33 35 36 37 38 39 40 41 42 43 43 44 45 46 45 46 46 47 47 46 47 47 48 48 48 48 48 49 51 53 55
Wind_Direction
228 217 209 206 206 208 213 222 221 217 217 217 216 215 215 219 224 231 244 248 247 243 236 231 228 226 227 231 237 242 239 234 231 227 226 230 234 237 241 245 249 252 250 244 242 244 247 248 251
232 221 213 208 207 208 221 223 221 220 220 218 218 219 223 229 234 238 245 249 247 242 237 232 229 227 227 230 232 233 232 229 226 223 226 229 231 233 235 237 240 240 238 237 237 238 241 246 251
234 225 216 212 210 206 218 224 222 221 222 220 217 220 229 237 241 246 252 252 245 238 232 227 224 223 223 223 223 224 224 222 219 219 222 224 225 226 227 228 232 234 235 237 242 246 249 254 256
234 228 222 217 215 213 217 223 223 222 223 222 220 226 235 243 248 253 253 250 240 230 223 219 216 216 217 216 216 216 215 213 213 214 214 214 216 217 216 219 227 233 237 243 252 257 260 263 263
234 232 226 222 217 217 222 225 226 224 227 224 222 233 242 249 256 257 251 244 230 221 215 211 209 209 210 210 210 211 209 206 205 204 203 204 207 208 209 215 226 236 243 251 260 267 269 268 268
233 233 231 226 221 220 222 225 225 224 225 226 227 235 248 253 258 267 254 238 219 209 206 204 204 206 206 206 205 205 202 199 196 196 196 200 204 205 207 217 231 242 251 260 269 276 278 278 275
233 233 232 228 222 222 222 224 225 226 226 226 227 236 250 259 263 264 253 232 212 204 201 201 202 205 204 201 198 198 196 193 192 194 195 200 206 210 215 227 241 251 262 274 283 286 288 287 285
232 232 230 227 224 222 223 224 226 226 228 230 231 235 246 255 261 259 249 228 208 197 195 195 199 202 199 195 194 193 192 192 193 195 198 204 212 220 228 240 257 275 286 292 296 294 295 296 294
232 231 228 227 225 221 222 224 225 227 228 230 232 237 245 251 259 256 248 226 205 193 187 185 190 195 195 194 193 193 193 194 197 201 206 214 222 232 246 262 275 287 296 300 301 300 301 301 300
230 230 227 227 225 222 223 224 225 225 225 227 230 234 239 246 255 252 245 228 207 193 185 184 188 191 192 193 194 195 198 201 205 211 218 226 236 248 260 270 280 291 299 305 307 306 306 309 307
230 229 226 226 226 224 223 224 227 228 225 224 225 229 235 241 253 254 247 236 214 197 188 185 188 191 194 197 199 203 208 214 217 224 232 240 249 256 265 271 277 287 295 300 305 307 307 309 309
229 227 226 226 225 223 223 225 228 230 228 226 227 229 233 240 247 255 251 238 218 203 196 193 190 194 200 204 208 213 218 226 232 238 244 250 256 261 267 273 278 284 291 296 299 301 303 304 305
227 226 225 225 225 224 225 227 230 232 230 229 230 230 233 238 245 251 252 241 223 211 203 199 197 199 204 210 215 221 228 236 242 247 252 257 261 265 271 276 279 282 287 290 291 293 296 298 299
227 224 224 225 226 226 227 229 231 232 232 230 230 231 232 233 238 244 245 236 224 217 211 206 206 210 215 220 225 231 238 244 248 252 257 261 265 269 273 276 279 281 284 286 285 286 289 290 291
226 224 224 224 225 225 227 230 232 230 231 228 227 227 228 230 234 238 238 234 228 222 217 213 214 219 226 231 236 239 244 247 251 256 261 264 267 269 272 274 277 280 281 281 280 280 283 284 285
223 222 223 222 222 223 225 227 229 229 230 228 226 225 224 227 230 234 236 235 232 226 223 220 221 225 231 238 241 245 248 250 253 258 262 265 267 269 271 273 277 278 277 277 277 277 280 281 280
219 217 218 220 219 221 222 224 227 228 228 226 227 227 224 225 228 232 233 235 232 228 226 224 224 227 231 237 245 249 252 255 258 261 263 265 267 268 270 273 277 277 276 277 276 276 278 277 277
215 213 214 217 216 217 219 224 225 225 225 225 225 226 226 226 230 233 231 232 231 231 230 228 226 228 232 239 246 251 254 256 259 260 262 263 266 267 268 272 275 275 275 276 276 273 274 273 275
211 209 210 213 214 214 218 222 223 222 222 223 224 225 226 227 230 231 230 230 231 235 236 235 235 234 237 241 246 249 253 256 258 259 261 264 265 267 270 273 275 275 274 278 276 272 273 272 272
208 206 207 211 211 212 216 219 220 221 223 223 224 225 228 229 229 228 231 231 234 237 237 239 241 241 244 244 244 248 252 254 258 259 260 263 264 268 271 272 276 277 278 279 277 274 277 275 273
205 201 203 207 208 210 215 219 218 220 224 224 225 225 228 229 229 229 232 232 235 238 240 243 244 243 245 248 249 250 253 254 257 260 261 264 266 269 270 274 279 279 279 277 278 282 276 276 277
203 201 202 204 202 209 211 218 219 220 223 225 226 227 228 228 228 230 233 235 238 241 244 245 246 251 254 255 253 254 256 256 259 265 267 269 266 269 276 280 282 280 281 281 279 280 278 279 277
201 199 200 202 201 205 208 209 224 222 223 225 226 228 228 228 229 230 233 236 239 241 243 246 251 256 259 258 257 258 258 263 265 267 273 273 275 277 283 284 286 285 283 281 279 280 280 279 278
201 198 199 202 203 208 209 209 224 223 224 225 226 228 229 230 231 232 233 236 239 241 244 250 252 256 261 261 262 262 264 267 270 273 279 284 285 282 285 287 288 287 284 282 281 279 280 279 278
199 195 196 201 204 213 214 214 223 224 225 227 228 229 230 231 232 232 234 236 240 242 245 252 255 258 262 264 266 268 270 273 276 281 284 288 288 287 286 288 289 288 286 284 282 282 280 280 280
198 193 187 200 210 218 217 221 224 226 226 226 229 231 232 232 232 234 236 237 241 244 247 252 257 260 264 267 270 272 274 278 281 285 286 289 289 291 292 290 290 289 287 286 284 282 281 280 281
196 193 196 195 203 213 222 225 226 226 227 228 230 233 235 234 235 238 241 243 246 249 251 256 260 263 266 270 275 278 278 279 283 284 286 288 291 290 291 290 290 288 288 286 284 284 282 281 281
195 199 202 197 207 219 229 230 230 228 229 231 233 234 237 238 240 243 246 248 250 253 256 259 263 267 270 274 278 279 280 281 282 285 286 289 289 289 290 289 288 285 285 285 284 282 282 281 282
197 202 204 205 206 216 237 236 233 234 234 234 234 235 238 241 244 247 249 252 254 256 259 264 267 270 274 277 279 280 281 282 283 284 285 286 285 286 286 285 283 282 281 282 282 281 280 281 283
200 205 208 211 222 216 226 239 236 237 237 237 238 239 241 244 246 250 253 256 259 261 263 266 269 272 274 277 278 279 280 281 282 282 282 282 280 280 281 280 280 280 282 282 281 282 282 283 284
Height
5886 5887 5890 5892 5896 5898 5899 5898 5898 5899 5900 5901 5902 5902 5902 5903 5904 5905 5902 5901 5901 5901 5902 5902 5903 5904 5905 5905 5906 5907 5907 5907 5907 5907 5908 5908 5908 5908 5908 5908 5908 5908 5907 5907 5907 5906 5906 5906 5906
5883 5885 5887 5890 5893 5897 5897 5895 5896 5897 5898 5899 5900 5900 5900 5900 5900 5900 5899 5898 5898 5899 5899 5900 5901 5902 5903 5904 5904 5905 5905 5905 5906 5906 5906 5906 5906 5906 5906 5906 5906 5906 5906 5905 5905 5905 5905 5905 5904
5880 5881 5884 5887 5889 5893 5893 5892 5893 5895 5896 5897 5898 5898 5899 5898 5898 5897 5897 5896 5896 5896 5897 5898 5899 5900 5901 5902 5903 5903 5903 5904 5904 5904 5904 5904 5904 5905 5905 5905 5905 5905 5904 5904 5904 5904 5904 5903 5903
5876 5878 5881 5884 5885 5887 5888 5888 5890 5892 5893 5895 5896 5897 5897 5896 5896 5895 5895 5894 5893 5894 5894 5895 5896 5897 5899 5900 5901 5901 5902 5902 5902 5903 5903 5903 5903 5903 5904 5904 5904 5904 5904 5903 5903 5903 5902 5902 5901
5871 5874 5876 5878 5881 5883 5883 5885 5887 5889 5891 5893 5894 5895 5895 5895 5894 5893 5893 5892 5891 5891 5892 5893 5894 5895 5896 5897 5898 5899 5900 5901 5901 5901 5901 5901 5902 5902 5903 5903 5903 5903 5903 5903 5902 5902 5901 5900 5900
5866 5869 5872 5875 5877 5879 5880 5881 5884 5886 5888 5890 5892 5893 5893 5893 5893 5892 5891 5890 5890 5890 5890 5891 5892 5893 5894 5895 5897 5898 5898 5899 5900 5900 5900 5901 5901 5902 5902 5903 5903 5903 5902 5902 5901 5900 5899 5899 5898
5861 5864 5867 5871 5873 5875 5876 5877 5880 5882 5885 5887 5889 5891 5891 5891 5891 5891 5890 5889 5888 5888 5889 5889 5890 5892 5893 5894 5895 5896 5897 5898 5898 5899 5900 5900 5901 5901 5902 5902 5902 5902 5902 5901 5900 5899 5898 5897 5897
5854 5859 5861 5865 5868 5870 5872 5872 5875 5878 5881 5884 5887 5888 5889 5890 5890 5889 5888 5888 5887 5887 5888 5888 5889 5890 5892 5893 5894 5895 5896 5897 5898 5898 5899 5899 5900 5900 5901 5901 5901 5901 5901 5900 5899 5898 5897 5896 5895
5846 5851 5856 5860 5862 5865 5866 5867 5870 5873 5877 5881 5884 5886 5887 5888 5888 5888 5888 5887 5887 5887 5887 5888 5889 5890 5891 5892 5893 5894 5895 5896 5897 5897 5898 5898 5899 5899 5900 5900 5900 5900 5900 5899 5898 5897 5895 5894 5893
5838 5844 5851 5853 5855 5858 5859 5862 5865 5868 5873 5877 5880 5883 5885 5886 5887 5887 5887 5886 5886 5886 5886 5887 5888 5889 5890 5891 5892 5893 5894 5895 5896 5897 5897 5897 5898 5898 5898 5899 5899 5898 5898 5897 5896 5895 5894 5892 5891
5831 5837 5842 5845 5848 5851 5854 5857 5860 5863 5868 5873 5876 5879 5882 5884 5886 5886 5886 5885 5885 5885 5886 5886 5888 5889 5890 5891 5892 5893 5894 5894 5895 5896 5896 5897 5897 5897 5897 5897 5897 5897 5896 5896 5895 5893 5892 5891 5889
5824 5829 5834 5838 5841 5845 5848 5852 5855 5858 5864 5868 5872 5875 5879 5882 5884 5884 5884 5884 5885 5885 5885 5886 5887 5888 5889 5890 5891 5892 5892 5893 5894 5895 5895 5896 5896 5895 5895 5895 5895 5895 5894 5894 5893 5892 5891 5889 5888
5816 5821 5826 5830 5835 5839 5843 5847 5850 5854 5859 5863 5867 5872 5876 5879 5881 5882 5883 5883 5883 5884 5885 5885 5886 5887 5888 5889 5890 5890 5891 5892 5893 5893 5894 5894 5894 5894 5894 5894 5893 5893 5892 5892 5891 5890 5889 5887 5886
5809 5814 5820 5825 5830 5835 5839 5843 5846 5850 5854 5858 5863 5868 5872 5876 5878 5880 5881 5881 5882 5882 5883 5884 5885 5886 5887 5888 5888 5889 5890 5890 5891 5891 5892 5892 5892 5892 5892 5891 5891 5890 5890 5889 5888 5887 5886 5885 5883
5803 5809 5815 5820 5825 5830 5834 5838 5842 5846 5849 5853 5858 5863 5868 5871 5874 5877 5878 5879 5879 5880 5881 5883 5883 5884 5885 5886 5887 5887 5888 5888 5889 5889 5889 5889 5889 5889 5889 5888 5888 5887 5886 5885 5884 5883 5882 5881 5879
5798 5804 5809 5814 5819 5824 5831 5834 5837 5840 5844 5849 5853 5858 5863 5867 5870 5872 5874 5875 5877 5878 5879 5880 5881 5882 5883 5884 5885 5885 5886 5886 5886 5886 5886 5886 5886 5885 5885 5884 5883 5882 5881 5880 5879 5879 5877 5876 5875
5793 5799 5803 5808 5813 5819 5825 5829 5832 5835 5840 5844 5849 5854 5858 5862 5865 5868 5870 5872 5873 5875 5876 5877 5878 5880 5881 5882 5882 5883 5883 5883 5883 5883 5883 5883 5882 5881 5880 5879 5878 5877 5876 5875 5874 5873 5872 5871 5870
5789 5794 5798 5803 5808 5814 5819 5823 5827 5831 5835 5839 5844 5848 5853 5856 5860 5862 5865 5868 5870 5872 5873 5874 5875 5876 5877 5878 5879 5879 5880 5880 5879 5879 5879 5878 5877 5876 5875 5874 5872 5870 5870 5868 5867 5866 5865 5865 5864
5784 5789 5794 5799 5804 5810 5814 5818 5822 5826 5830 5834 5839 5843 5848 5851 5854 5858 5861 5863 5866 5868 5870 5871 5872 5873 5874 5875 5875 5875 5875 5875 5875 5874 5873 5873 5871 5870 5869 5868 5866 5864 5863 5862 5860 5859 5858 5858 5857
5781 5786 5791 5795 5800 5805 5810 5814 5818 5822 5826 5830 5834 5839 5843 5846 5850 5853 5856 5859 5862 5864 5866 5867 5868 5869 5869 5870 5870 5870 5869 5869 5869 5868 5867 5866 5865 5863 5862 5860 5859 5857 5856 5854 5853 5852 5851 5851 5850
5778 5783 5788 5792 5796 5801 5807 5811 5814 5818 5821 5825 5830 5834 5838 5842 5845 5848 5852 5854 5857 5859 5860 5861 5862 5862 5863 5863 5863 5863 5863 5863 5862 5861 5860 5859 5857 5856 5854 5853 5852 5851 5849 5848 5846 5845 5845 5844 5843
5776 5780 5784 5789 5795 5800 5805 5809 5811 5814 5817 5821 5825 5829 5833 5837 5840 5844 5847 5849 5852 5854 5855 5856 5856 5857 5857 5857 5856 5856 5856 5855 5854 5854 5853 5851 5849 5848 5847 5846 5845 5844 5843 5841 5840 5838 5837 5837 5836
5773 5777 5782 5786 5791 5797 5801 5807 5807 5809 5813 5817 5820 5824 5828 5831 5835 5838 5841 5844 5846 5848 5850 5851 5851 5851 5851 5850 5850 5849 5849 5849 5848 5847 5846 5844 5842 5841 5840 5839 5838 5837 5836 5834 5833 5831 5830 5829 5828
5770 5775 5780 5784 5790 5795 5798 5803 5804 5805 5809 5813 5816 5820 5823 5826 5829 5832 5835 5837 5840 5842 5844 5844 5845 5845 5845 5844 5843 5842 5842 5841 5840 5840 5838 5836 5835 5834 5833 5832 5831 5830 5828 5827 5825 5824 5822 5821 5820
5769 5775 5780 5785 5789 5792 5794 5798 5800 5802 5805 5809 5812 5815 5818 5821 5824 5826 5829 5832 5834 5836 5837 5839 5839 5839 5839 5838 5837 5836 5835 5834 5833 5832 5831 5829 5828 5826 5824 5824 5823 5822 5820 5819 5817 5815 5814 5812 5811
5767 5773 5781 5787 5789 5790 5791 5793 5797 5799 5802 5805 5808 5811 5814 5816 5819 5821 5823 5826 5828 5830 5831 5832 5833 5833 5832 5832 5831 5830 5829 5828 5826 5825 5824 5822 5819 5818 5816 5815 5815 5813 5812 5810 5808 5807 5805 5803 5801
5765 5770 5776 5781 5785 5788 5788 5790 5793 5796 5798 5801 5804 5807 5809 5812 5814 5816 5818 5820 5822 5823 5825 5826 5826 5826 5826 5825 5824 5823 5821 5820 5819 5818 5816 5814 5811 5809 5808 5807 5805 5803 5802 5800 5798 5797 5795 5792 5790
5764 5768 5772 5778 5782 5785 5785 5787 5789 5792 5795 5797 5800 5802 5805 5807 5809 5811 5813 5814 5816 5817 5818 5819 5819 5819 5818 5818 5817 5816 5814 5813 5811 5809 5807 5805 5802 5800 5798 5796 5794 5793 5791 5790 5787 5785 5783 5780 5778
5763 5766 5770 5775 5779 5783 5783 5785 5785 5788 5790 5793 5795 5798 5800 5802 5804 5805 5806 5808 5808 5809 5810 5811 5811 5810 5810 5809 5808 5806 5805 5804 5802 5800 5798 5795 5793 5790 5788 5786 5784 5782 5780 5777 5775 5773 5770 5767 5764
5761 5764 5768 5773 5774 5777 5781 5782 5781 5783 5785 5788 5790 5792 5794 5796 5797 5798 5800 5801 5801 5802 5802 5802 5802 5802 5801 5800 5798 5797 5795 5794 5792 5790 5787 5785 5783 5780 5778 5775 5772 5770 5768 5765 5762 5760 5757 5753 5750